Date,TemperatureHighF,TemperatureAvgF,TemperatureLowF,DewpointHighF,DewpointAvgF,DewpointLowF,HumidityHigh,HumidityAvg,HumidityLow,PressureMaxIn,PressureMinIn,WindSpeedMaxMPH,WindSpeedAvgMPH,GustSpeedMaxMPH,PrecipitationSumIn
2013-7-2,63.0,63.0,63.0,61.0,61.0,61.0,93,93,93,0.00,40.00,0,-999,0,0.00
2013-7-19,91.0,91.0,91.0,71.0,71.0,71.0,51,51,51,0.00,40.00,0,-999,0,0.00
2013-8-1,77.0,77.0,77.0,50.0,50.0,50.0,38,38,38,0.00,40.00,0,-999,0,0.00
2013-8-12,72.0,72.0,72.0,67.0,67.0,67.0,85,85,85,0.00,40.00,0,-999,0,0.00
2013-8-13,66.0,65.0,64.0,64.0,63.3,62.0,95,94,92,0.00,40.00,0,-999,0,0.00
2013-8-14,55.0,54.0,53.0,49.0,48.0,47.0,80,79,79,0.00,40.00,0,-999,0,0.00
2013-8-15,73.0,63.3,50.0,54.0,50.2,48.0,91,64,41,0.00,40.00,0,-999,0,0.00
2013-8-16,76.0,65.7,54.0,54.0,50.3,46.0,92,62,35,0.00,40.00,0,-999,0,0.00
2013-8-17,78.0,67.8,55.0,57.0,54.0,51.0,91,64,40,0.00,40.00,0,-999,0,0.00
2013-8-18,80.0,68.3,58.0,59.0,56.5,53.0,88,68,39,0.00,40.00,0,-999,0,0.00
2013-8-19,81.0,69.9,60.0,62.0,59.4,57.0,92,71,45,0.00,40.00,0,-999,0,0.00
2013-8-21,85.0,80.2,72.0,66.0,64.3,61.0,76,59,44,0.00,40.00,0,-999,0,0.00
2013-8-22,79.0,79.0,79.0,66.0,65.5,65.0,63,62,62,0.00,40.00,0,-999,0,0.00
2013-8-23,80.0,72.5,65.0,66.0,56.8,50.0,97,61,35,0.00,40.00,0,-999,0,0.00
2013-8-24,79.0,63.6,58.0,57.0,55.1,51.0,91,76,37,0.00,40.00,0,-999,0,0.00
2013-8-25,85.0,75.7,60.0,64.0,60.4,56.0,89,61,43,0.00,40.00,0,-999,0,0.00
2013-8-27,88.0,78.0,74.0,72.0,69.6,68.0,84,75,58,0.00,40.00,0,-999,0,0.00
2013-8-28,83.0,81.4,79.0,72.0,71.1,70.0,74,70,66,0.00,40.00,0,-999,0,0.00
2013-8-29,86.0,75.6,67.0,69.0,66.2,59.0,95,75,40,0.00,40.00,0,-999,0,0.00
2013-8-30,90.0,78.6,68.0,72.0,69.4,66.0,92,74,49,0.00,40.00,0,-999,0,0.00
2013-8-31,76.0,74.5,73.0,72.0,70.5,69.0,87,86,86,0.00,40.00,0,-999,0,0.00
2013-9-1,83.0,73.8,69.0,69.0,68.3,68.0,95,83,62,0.00,40.00,0,-999,0,0.00
2013-9-2,76.0,72.0,68.0,69.0,60.2,58.0,89,66,53,0.00,40.00,0,-999,0,0.00
2013-9-3,73.0,64.8,59.0,56.0,53.1,51.0,81,66,50,0.00,40.00,0,-999,0,0.00
2013-9-4,78.0,68.1,56.0,57.0,53.4,49.0,91,63,35,0.00,40.00,0,-999,0,0.00
2013-9-5,72.0,64.3,60.0,59.0,53.6,45.0,89,71,43,0.00,40.00,0,-999,0,0.00
2013-9-6,79.0,67.4,55.0,61.0,51.6,45.0,75,58,40,0.00,40.00,0,-999,0,0.00
2013-9-7,83.0,72.8,66.0,67.0,60.7,54.0,79,66,48,0.00,40.00,0,-999,0,0.00
2013-9-8,76.0,72.7,67.0,67.0,64.5,63.0,92,75,64,0.00,40.00,0,-999,0,0.00
2013-9-9,90.0,71.0,65.0,71.0,61.4,55.0,79,71,52,0.00,40.00,0,-999,0,0.00
2013-9-10,82.0,79.6,78.0,70.0,69.0,68.0,75,69,63,0.00,40.00,0,-999,0,0.00
2013-9-11,92.0,81.2,74.0,71.0,68.2,64.0,83,66,39,0.00,40.00,0,-999,0,0.00
2013-9-12,74.0,71.4,69.0,69.0,62.9,54.0,89,75,52,0.00,40.00,0,-999,0,0.00
2013-9-28,65.0,65.0,65.0,55.0,55.0,55.0,67,67,67,0.00,40.00,0,-999,0,0.00
2013-11-15,48.0,48.0,48.0,28.0,28.0,28.0,44,44,44,0.00,40.00,0,-999,0,0.00